Regional Weather Roundup
Issued by NWS

Home | Current Version | Previous Version | Graphics & Text | Print | Product List | Glossary On
Versions: 1 2 3 4 5 6 7 8 9 10 11 12 13 14 15 16 17 18 19 20 21 22 23 24 25 26 27
000
ASUS45 KCYS 220510
RWRWY

WYOMING REGIONAL WEATHER ROUNDUP
NATIONAL WEATHER SERVICE CHEYENNE WY
1100 PM MDT MON MAY 21 2018

NOTE:  "FAIR" INDICATES FEW OR NO CLOUDS BELOW 12,000 FEET
WITH NO SIGNIFICANT WEATHER AND/OR OBSTRUCTIONS TO VISIBILITY.

WYZ001-220600-
YELLOWSTONE NATIONAL PARK

CITY           SKY/WX    TMP DP  RH WIND       PRES   REMARKS
LK YELLOWSTONE   N/A     39  33  79 NW3       30.16R
W YELLOWSTONE  NOT AVBL

$$
WYZ002>013-054>058-071-098>099-220600-
NORTHERN WYOMING

CITY           SKY/WX    TMP DP  RH WIND       PRES   REMARKS
JACKSON        FAIR      49  41  74 W3        30.07R
CODY           FAIR      52  46  80 CALM      30.03R
GREYBULL       FAIR      60  49  66 NW5       29.95R
WORLAND        FAIR      50  48  93 CALM      29.94F
SHERIDAN       LGT RAIN  56  50  80 NW6       29.95R
BUFFALO        MOCLDY    60  46  59 W9        30.00R
GILLETTE       FAIR      63  43  48 SW18G31   29.96R
NEWCASTLE      FAIR      61  41  48 SE7       29.97R

$$
WYZ014>020-022>026-101>103-220600-
CENTRAL WYOMING

CITY           SKY/WX    TMP DP  RH WIND       PRES   REMARKS
BIG PINEY      FAIR      45  41  86 CALM      30.08R
PINEDALE       FAIR      45  37  76 NW5       30.09S
DUBOIS         FAIR      45  36  70 NW7       30.09S
LANDER         FAIR      56  43  61 SW10      30.00R
RIVERTON       FAIR      54  44  69 W8        30.01R
CASPER         FAIR      58  45  62 E8        30.01R
DOUGLAS        FAIR      57  47  69 E12       29.99S

$$
WYZ021-027>030-104>119-220600-
SOUTHERN WYOMING

CITY           SKY/WX    TMP DP  RH WIND       PRES   REMARKS
EVANSTON       FAIR      53  41  63 NE6       30.05R
KEMMERER       FAIR      48  36  61 N14       30.07F
FORT BRIDGER   FAIR      55  38  51 CALM      30.08S
ROCK SPRINGS   FAIR      54  38  54 NE13      30.05R
DIXON          FAIR      53  33  46 E8        30.03S
RAWLINS        FAIR      53  33  46 N12       30.04R
SARATOGA       FAIR      55  37  50 S14G21    30.05F
LARAMIE        FAIR      50  42  74 SE5       30.08S
CHEYENNE       FAIR      52  50  93 N3        30.04F
TORRINGTON     FAIR      59  57  93 S5        29.96R
PINE BLUFFS    FAIR      54  52  94 NE6       30.01F

$$




USA.gov is the U.S. government's official web portal to all federal, state and local government web resources and services.